• In Latvia
  • List of Countries
  • For 7 days
  • Water Temperature
  • Satellite Maps
  • Weather Map
  • Weather Widgets
  • user-avatar
    Login

    Hourly Weather West Coon Rapids

    Today, 14 November, Wednesday

    Time Temperature Precipitation Wind Pressure Humidity
    00:00 -8°C° 0 mm 1 mps 748 mmHg 80%
    01:00 -8°C° 0 mm 1 mps 748 mmHg 80%
    02:00 -9°C° 0 mm 2 mps 747 mmHg 80%
    03:00 -8°C° 0 mm 2 mps 747 mmHg 80%
    04:00 -8°C° 0 mm 2 mps 747 mmHg 80%
    05:00 -8°C° 0 mm 2 mps 747 mmHg 79%
    06:00 -8°C° 0 mm 2 mps 747 mmHg 79%
    07:00 -8°C° 0 mm 3 mps 747 mmHg 76%
    08:00 -7°C° 0 mm 3 mps 747 mmHg 73%
    09:00 -7°C° 0 mm 4 mps 747 mmHg 69%
    10:00 -5°C° 0 mm 4 mps 747 mmHg 66%
    11:00 -3°C° 0 mm 4 mps 746 mmHg 64%
    12:00 -1°C° 0 mm 4 mps 746 mmHg 61%
    13:00 -1°C° 0 mm 4 mps 745 mmHg 61%
    14:00 0°C° 0 mm 4 mps 744 mmHg 61%
    15:00 0°C° 0 mm 5 mps 744 mmHg 61%
    16:00 -1°C° 0 mm 5 mps 743 mmHg 62%
    17:00 -1°C° 0 mm 5 mps 743 mmHg 63%
    18:00 -3°C° 0 mm 6 mps 742 mmHg 64%
    19:00 -3°C° 0 mm 6 mps 742 mmHg 64%
    20:00 -3°C° 0 mm 6 mps 741 mmHg 63%
    21:00 -3°C° 0 mm 6 mps 741 mmHg 63%
    22:00 -3°C° 0 mm 6 mps 741 mmHg 63%
    23:00 -3°C° 0 mm 6 mps 740 mmHg 63%

    Tomorrow, 15 November, Thursday

    Time Temperature Precipitation Wind Pressure Humidity
    00:00 -3°C° 0 mm 6 mps 740 mmHg 64%
    01:00 -4°C° 0 mm 6 mps 739 mmHg 64%
    02:00 -4°C° 0 mm 6 mps 739 mmHg 64%
    03:00 -4°C° 0 mm 6 mps 738 mmHg 65%
    04:00 -4°C° 0 mm 5 mps 738 mmHg 66%
    05:00 -4°C° 0 mm 5 mps 737 mmHg 67%
    06:00 -4°C° 0 mm 5 mps 736 mmHg 68%
    07:00 -4°C° 0 mm 5 mps 736 mmHg 68%
    08:00 -4°C° 0 mm 5 mps 736 mmHg 68%
    09:00 -2°C° 0 mm 5 mps 735 mmHg 67%
    10:00 -1°C° 0 mm 5 mps 735 mmHg 66%
    11:00 0°C° 0 mm 5 mps 734 mmHg 65%
    12:00 +3°C° 0 mm 4 mps 733 mmHg 64%
    13:00 +3°C° 0 mm 4 mps 733 mmHg 66%
    14:00 +4°C° 0 mm 3 mps 732 mmHg 67%
    15:00 +4°C° 0 mm 3 mps 731 mmHg 69%
    16:00 +3°C° 0 mm 3 mps 731 mmHg 74%
    17:00 +2°C° 0 mm 3 mps 731 mmHg 80%
    18:00 +1°C° 0 mm 3 mps 731 mmHg 86%
    19:00 0°C° 0.2 mm 4 mps 731 mmHg 87%
    20:00 0°C° 0.2 mm 5 mps 731 mmHg 87%
    21:00 -1°C° 0.2 mm 6 mps 731 mmHg 88%
    22:00 -1°C° 0.2 mm 6 mps 731 mmHg 86%
    23:00 -2°C° 0.2 mm 6 mps 732 mmHg 85%

    Day after tomorrow, 16 November, Friday

    Time Temperature Precipitation Wind Pressure Humidity
    00:00 -2°C° 0.2 mm 6 mps 732 mmHg 83%
    01:00 -2°C° 0 mm 6 mps 733 mmHg 83%
    02:00 -3°C° 0 mm 6 mps 733 mmHg 82%
    03:00 -3°C° 0 mm 6 mps 734 mmHg 82%
    04:00 -2°C° 0 mm 5 mps 735 mmHg 82%
    05:00 -2°C° 0 mm 5 mps 735 mmHg 81%
    06:00 -2°C° 0 mm 4 mps 735 mmHg 81%
    07:00 -2°C° 0 mm 4 mps 736 mmHg 80%
    08:00 -2°C° 0 mm 4 mps 736 mmHg 78%
    09:00 -2°C° 0 mm 4 mps 737 mmHg 77%
    10:00 -1°C° 0 mm 4 mps 737 mmHg 74%
    11:00 0°C° 0 mm 4 mps 737 mmHg 71%
    12:00 0°C° 0 mm 4 mps 738 mmHg 68%
    13:00 0°C° 0 mm 4 mps 738 mmHg 68%
    14:00 0°C° 0 mm 4 mps 738 mmHg 69%
    15:00 0°C° 0 mm 4 mps 738 mmHg 70%
    16:00 -1°C° 0.1 mm 4 mps 738 mmHg 72%
    17:00 -2°C° 0.1 mm 4 mps 739 mmHg 75%
    18:00 -2°C° 0.1 mm 3 mps 739 mmHg 77%
    19:00 -3°C° 0 mm 4 mps 740 mmHg 76%
    20:00 -4°C° 0 mm 4 mps 741 mmHg 74%
    21:00 -6°C° 0 mm 5 mps 742 mmHg 73%
    22:00 -6°C° 0 mm 5 mps 742 mmHg 71%
    23:00 -7°C° 0 mm 5 mps 743 mmHg 69%

    17 November, Saturday

    Time Temperature Precipitation Wind Pressure Humidity
    00:00 -8°C° 0 mm 5 mps 743 mmHg 68%
    01:00 -8°C° 0 mm 5 mps 744 mmHg 67%
    02:00 -8°C° 0 mm 5 mps 744 mmHg 66%
    03:00 -8°C° 0 mm 5 mps 744 mmHg 66%
    04:00 -8°C° 0 mm 5 mps 745 mmHg 65%
    05:00 -8°C° 0 mm 5 mps 745 mmHg 65%
    06:00 -8°C° 0 mm 5 mps 746 mmHg 65%
    07:00 -8°C° 0 mm 5 mps 747 mmHg 64%
    08:00 -8°C° 0 mm 5 mps 747 mmHg 63%
    09:00 -8°C° 0 mm 5 mps 748 mmHg 62%
    10:00 -8°C° 0 mm 4 mps 748 mmHg 59%
    11:00 -7°C° 0 mm 4 mps 748 mmHg 56%
    12:00 -7°C° 0 mm 4 mps 748 mmHg 53%
    13:00 -7°C° 0 mm 4 mps 748 mmHg 52%
    14:00 -7°C° 0 mm 4 mps 748 mmHg 51%
    15:00 -7°C° 0 mm 4 mps 748 mmHg 50%
    16:00 -6°C° 0 mm 3 mps 748 mmHg 52%
    17:00 -7°C° 0 mm 3 mps 748 mmHg 54%
    18:00 -8°C° 0 mm 3 mps 748 mmHg 56%
    19:00 -8°C° 0 mm 3 mps 748 mmHg 57%
    20:00 -8°C° 0 mm 3 mps 748 mmHg 59%
    21:00 -9°C° 0 mm 3 mps 748 mmHg 60%
    22:00 -9°C° 0 mm 3 mps 748 mmHg 60%
    23:00 -9°C° 0 mm 3 mps 747 mmHg 61%

    18 November, Sunday

    Time Temperature Precipitation Wind Pressure Humidity
    00:00 -9°C° 0 mm 3 mps 747 mmHg 62%
    01:00 -10°C° 0 mm 3 mps 747 mmHg 63%
    02:00 -10°C° 0 mm 3 mps 746 mmHg 65%
    03:00 -11°C° 0 mm 4 mps 746 mmHg 66%
    04:00 -11°C° 0 mm 4 mps 745 mmHg 68%
    05:00 -11°C° 0 mm 4 mps 745 mmHg 69%
    06:00 -11°C° 0 mm 4 mps 745 mmHg 71%
    07:00 -11°C° 0 mm 4 mps 744 mmHg 69%
    08:00 -10°C° 0 mm 4 mps 744 mmHg 66%
    09:00 -11°C° 0 mm 5 mps 744 mmHg 64%
    10:00 -8°C° 0 mm 5 mps 743 mmHg 59%
    11:00 -7°C° 0 mm 5 mps 743 mmHg 54%
    12:00 -5°C° 0 mm 5 mps 742 mmHg 50%
    13:00 -5°C° 0 mm 5 mps 742 mmHg 50%
    14:00 -4°C° 0 mm 5 mps 741 mmHg 51%
    15:00 -4°C° 0 mm 5 mps 741 mmHg 51%
    16:00 -5°C° 0 mm 5 mps 741 mmHg 56%
    17:00 -5°C° 0 mm 4 mps 741 mmHg 61%
    18:00 -7°C° 0 mm 4 mps 741 mmHg 66%
    19:00 -7°C° 0 mm 4 mps 742 mmHg 67%
    20:00 -7°C° 0 mm 3 mps 742 mmHg 68%
    21:00 -8°C° 0 mm 3 mps 742 mmHg 68%
    22:00 -8°C° 0 mm 3 mps 742 mmHg 68%
    23:00 -7°C° 0 mm 2 mps 742 mmHg 68%

    19 November, Monday

    Time Temperature Precipitation Wind Pressure Humidity
    00:00 -8°C° 0 mm 2 mps 742 mmHg 67%
    01:00 -8°C° 0 mm 2 mps 742 mmHg 66%
    02:00 -7°C° 0 mm 1 mps 742 mmHg 65%
    03:00 -7°C° 0 mm 1 mps 742 mmHg 64%
    04:00 -7°C° 0 mm 1 mps 742 mmHg 63%
    05:00 -7°C° 0 mm 0 mps 742 mmHg 62%
    06:00 -7°C° 0 mm 0 mps 742 mmHg 61%
    07:00 -7°C° 0 mm 0 mps 743 mmHg 61%
    08:00 -6°C° 0 mm 1 mps 743 mmHg 60%
    09:00 -6°C° 0 mm 1 mps 743 mmHg 60%
    10:00 -4°C° 0 mm 1 mps 743 mmHg 57%
    11:00 -4°C° 0 mm 1 mps 742 mmHg 55%
    12:00 -3°C° 0 mm 1 mps 742 mmHg 52%
    13:00 -2°C° 0 mm 1 mps 742 mmHg 51%
    14:00 -2°C° 0 mm 1 mps 742 mmHg 50%
    15:00 -2°C° 0 mm 1 mps 742 mmHg 50%
    16:00 -2°C° 0 mm 1 mps 742 mmHg 51%
    17:00 -2°C° 0 mm 1 mps 742 mmHg 52%
    18:00 -4°C° 0 mm 2 mps 743 mmHg 54%
    19:00 -5°C° 0 mm 2 mps 743 mmHg 53%
    20:00 -5°C° 0 mm 2 mps 743 mmHg 53%
    21:00 -5°C° 0 mm 2 mps 743 mmHg 53%
    22:00 -5°C° 0 mm 2 mps 742 mmHg 53%
    23:00 -5°C° 0 mm 2 mps 742 mmHg 54%
    Show more